Regional Weather Roundup
Issued by NWS

Home | Current Version | Previous Version | Text Only | Print | Product List | Glossary Off
Versions: 1 2 3 4 5 6 7 8 9 10 11 12 13 14 15 16 17 18 19 20 21 22 23 24 25 26 27 28 29 30 31 32 33 34 35 36 37 38 39 40 41 42 43 44 45 46 47 48 49 50

000
ASUS43 KLMK 251102
RWRKY
KENTUCKY REGIONAL WEATHER ROUNDUP
NATIONAL WEATHER SERVICE LOUISVILLE KY
700 AM EDT THU MAY 25 2017

NOTE "FAIR" INDICATES FEW OR NO CLOUDS BELOW 12,000 FEET
WITH NO SIGNIFICANT WEATHER AND/OR OBSTRUCTIONS TO VISIBILITY.

KYZ001>023-026-027-061>063-070>075-251200-
WESTERN AND SOUTH CENTRAL KENTUCKY

CITY           SKY/WX    TMP DP  RH WIND       PRES   REMARKS
PADUCAH        CLEAR     53  49  86 W6        29.64R
HENDERSON      CLOUDY    58  55  90 W13       29.59R
OWENSBORO      CLOUDY    59  56  89 W13       29.57R
HOPKINSVILLE   CLOUDY    55  54  96 W12       29.63R
BOWLING GREEN  CLOUDY    58  55  90 W9        29.59R
GLASGOW        NOT AVBL
$$

KYZ024-025-028>034-038-045-046-053-251200-
NORTH CENTRAL KENTUCKY

CITY           SKY/WX    TMP DP  RH WIND       PRES   REMARKS
LOUISVILLE/SDF CLOUDY    59  56  89 W9        29.49R FOG
LOUISVILLE/LOU CLOUDY    58  58 100 W8        29.49R
FORT KNOX      CLOUDY    57  56  99 W8        29.50R
$$

KYZ035>037-039>044-047>052-055>060-089>105-251200-
NORTHEAST KENTUCKY

CITY           SKY/WX    TMP DP  RH WIND       PRES   REMARKS
LEXINGTON      HVY RAIN  57  54  89 SW8       29.48R FOG
COVINGTON      LGT RAIN  57  56  96 SW8       29.39S FOG
FRANKFORT      LGT RAIN  57  53  86 W9        29.47R
$$

KYZ054-064>069-076>088-106>120-251200-
SOUTHEAST KENTUCKY

CITY           SKY/WX    TMP DP  RH WIND       PRES   REMARKS
JACKSON        CLOUDY    54  50  86 VRB5      29.53R
LONDON         CLOUDY    53  49  86 SW12      29.56R FOG
SOMERSET       NOT AVBL
MIDDLESBORO    CLOUDY    54  49  83 S6        29.60R
MONTICELLO     LGT RAIN  55  52  89 W17       29.59R
$$





USA.gov is the U.S. government's official web portal to all federal, state and local government web resources and services.